Shawnee, OK

8:05 AM CST on November 20, 2017 (GMT -0600)
Shawnee Municipal

Weather History for KSNL - November, 2011

Change the Weather History Date:

Saturday, November 19, 2011

  Actual Average (KTIK) Record (KTIK)
Temperature  
Mean Temperature 68 °F -  
Max Temperature 78 °F 56 °F 77 °F (2011)
Min Temperature 59 °F 38 °F 28 °F (2016)
Cooling Degree Days 4    
Growing Degree Days 18 (Base 50)    
Moisture  
Dew Point 55 °F    
Average Humidity 63    
Maximum Humidity 78    
Minimum Humidity 42    
Precipitation  
Precipitation 0.00 in - - ()
Sea Level Pressure  
Sea Level Pressure 29.80 in    
Wind  
Wind Speed 17 mph (SSW)    
Max Wind Speed 26 mph    
Max Gust Speed 33 mph    
Visibility 10 miles    
Events      
Averages and records for this station are not official NWS values.
T = Trace of Precipitation, MM = Missing Value Source: NWS Daily Summary

Daily Weather History Graph

Daily Weather History Graph

Search for Another Location

Airport or City:

Trip Planner

Search our weather history database for the weather conditions in past years. The results will help you decide how hot, cold, wet, or windy it might be!

Date:

Astronomy

Nov. 19, 2011 Rise Set
Actual Time 7:06 AM CST 5:19 PM CST
Civil Twilight 6:39 AM CST 5:46 PM CST
Nautical Twilight 6:08 AM CST 6:17 PM CST
Astronomical Twilight 5:38 AM CST 6:47 PM CST
Moon 12:41 AM CST (11/19) 1:25 PM CST (11/19)
Length of Visible Light 11h 07m
Length of Day
10h 12m
Last Quarter, 38% of the Moon is Illuminated
Nov 19
Last Quarter
Nov 25
New
Dec 2
First Quarter
Dec 10
Full
Dec 17
Last Quarter

Hourly Weather History & Observations

Time (CST) Temp. Dew Point Humidity Pressure Visibility Wind Dir Wind Speed Gust Speed Precip Events Conditions
12:15 AM 60.8 °F 50.0 °F 68% 29.82 in 10.0 mi South 18.4 mph 25.3 mph N/A   Overcast
12:35 AM 60.8 °F 50.0 °F 68% 29.82 in 10.0 mi South 17.3 mph 24.2 mph N/A   Overcast
12:55 AM 60.8 °F 50.0 °F 68% 29.81 in 10.0 mi South 16.1 mph 26.5 mph N/A   Overcast
1:15 AM 60.8 °F 50.0 °F 68% 29.80 in 10.0 mi South 17.3 mph 24.2 mph N/A   Overcast
1:35 AM 59.0 °F 50.0 °F 72% 29.79 in 10.0 mi South 15.0 mph 23.0 mph N/A   Overcast
1:55 AM 59.0 °F 50.0 °F 72% 29.79 in 10.0 mi South 16.1 mph 21.9 mph N/A   Overcast
2:15 AM 60.8 °F 50.0 °F 68% 29.78 in 10.0 mi South 20.7 mph 26.5 mph N/A   Overcast
2:35 AM 60.8 °F 51.8 °F 72% 29.78 in 10.0 mi South 20.7 mph 26.5 mph N/A   Overcast
2:55 AM 60.8 °F 51.8 °F 72% 29.78 in 10.0 mi South 21.9 mph 33.4 mph N/A   Overcast
3:15 AM 60.8 °F 51.8 °F 72% 29.79 in 10.0 mi South 17.3 mph 28.8 mph N/A   Overcast
3:35 AM 62.6 °F 51.8 °F 68% 29.78 in 10.0 mi South 20.7 mph 28.8 mph N/A   Overcast
3:55 AM 60.8 °F 51.8 °F 72% 29.78 in 10.0 mi South 18.4 mph 28.8 mph N/A   Overcast
4:15 AM 60.8 °F 53.6 °F 77% 29.78 in 10.0 mi South 18.4 mph 28.8 mph N/A   Overcast
4:35 AM 60.8 °F 53.6 °F 77% 29.78 in 10.0 mi South 17.3 mph 25.3 mph N/A   Overcast
4:55 AM 62.6 °F 53.6 °F 72% 29.78 in 10.0 mi South 23.0 mph 27.6 mph N/A   Overcast
5:15 AM 62.6 °F 53.6 °F 72% 29.78 in 10.0 mi South 20.7 mph 32.2 mph N/A   Overcast
5:35 AM 62.6 °F 55.4 °F 77% 29.78 in 10.0 mi South 19.6 mph 27.6 mph N/A   Overcast
5:55 AM 62.6 °F 55.4 °F 77% 29.78 in 10.0 mi South 20.7 mph 26.5 mph N/A   Overcast
6:15 AM 62.6 °F 55.4 °F 77% 29.77 in 10.0 mi South 20.7 mph 27.6 mph N/A   Mostly Cloudy
6:55 AM 62.6 °F 55.4 °F 77% 29.77 in 10.0 mi South 17.3 mph 31.1 mph N/A   Overcast
7:35 AM 64.4 °F 55.4 °F 73% 29.79 in 10.0 mi SSW 19.6 mph 31.1 mph N/A   Overcast
8:15 AM 64.4 °F 55.4 °F 73% 29.81 in 10.0 mi SSW 18.4 mph 28.8 mph N/A   Overcast
8:35 AM 64.4 °F 57.2 °F 77% 29.81 in 10.0 mi SSW 21.9 mph 28.8 mph N/A   Overcast
9:15 AM 66.2 °F 59.0 °F 78% 29.83 in 10.0 mi SSW 19.6 mph 26.5 mph N/A   Overcast
9:55 AM 66.2 °F 59.0 °F 78% 29.84 in 10.0 mi SSW 17.3 mph 24.2 mph N/A   Overcast
10:35 AM 69.8 °F 59.0 °F 68% 29.82 in 10.0 mi SSW 16.1 mph 26.5 mph N/A   Overcast
10:55 AM 69.8 °F 59.0 °F 68% 29.82 in 10.0 mi SSW 16.1 mph 24.2 mph N/A   Mostly Cloudy
11:15 AM 69.8 °F 59.0 °F 68% 29.81 in 10.0 mi SSW 20.7 mph 28.8 mph N/A   Mostly Cloudy
11:35 AM 73.4 °F 59.0 °F 61% 29.81 in 10.0 mi SSW 26.5 mph 33.4 mph N/A   Scattered Clouds
11:55 AM 73.4 °F 59.0 °F 61% 29.80 in 10.0 mi SSW 23.0 mph 33.4 mph N/A   Scattered Clouds
12:15 PM 73.4 °F 59.0 °F 61% 29.79 in 10.0 mi SSW 18.4 mph 28.8 mph N/A   Scattered Clouds
12:35 PM 73.4 °F 59.0 °F 61% 29.79 in 10.0 mi SSW 20.7 mph 28.8 mph N/A   Scattered Clouds
12:55 PM 73.4 °F 59.0 °F 61% 29.78 in 10.0 mi SSW 20.7 mph 25.3 mph N/A   Clear
1:15 PM 75.2 °F 57.2 °F 53% 29.78 in 10.0 mi SSW 20.7 mph 32.2 mph N/A   Clear
1:35 PM 77.0 °F 55.4 °F 47% 29.77 in 10.0 mi SSW 17.3 mph 25.3 mph N/A   Clear
1:55 PM 78.8 °F 55.4 °F 44% 29.77 in 10.0 mi SSW 18.4 mph 27.6 mph N/A   Clear
2:15 PM 78.8 °F 55.4 °F 44% 29.77 in 10.0 mi SSW 20.7 mph 28.8 mph N/A   Clear
2:35 PM 78.8 °F 55.4 °F 44% 29.77 in 10.0 mi SSW 19.6 mph 25.3 mph N/A   Clear
2:55 PM 78.8 °F 53.6 °F 42% 29.77 in 10.0 mi SW 20.7 mph 26.5 mph N/A   Clear
3:15 PM 78.8 °F 55.4 °F 44% 29.77 in 10.0 mi SSW 16.1 mph - N/A   Clear
3:35 PM 78.8 °F 53.6 °F 42% 29.78 in 10.0 mi SW 13.8 mph 23.0 mph N/A   Clear
3:55 PM 78.8 °F 53.6 °F 42% 29.78 in 10.0 mi SSW 12.7 mph 20.7 mph N/A   Clear
4:15 PM 77.0 °F 53.6 °F 44% 29.79 in 10.0 mi SW 9.2 mph - N/A   Clear
4:35 PM 75.2 °F 55.4 °F 50% 29.80 in 10.0 mi SSW 9.2 mph - N/A   Clear
4:55 PM 73.4 °F 55.4 °F 53% 29.81 in 10.0 mi SW 3.5 mph - N/A   Clear
5:15 PM 71.6 °F 53.6 °F 53% 29.81 in 10.0 mi Calm Calm - N/A   Clear
5:35 PM 71.6 °F 55.4 °F 57% 29.82 in 10.0 mi Calm Calm - N/A   Clear
5:55 PM 69.8 °F 53.6 °F 56% 29.83 in 10.0 mi Calm Calm - N/A   Scattered Clouds
6:15 PM 69.8 °F 53.6 °F 56% 29.84 in 10.0 mi South 3.5 mph - N/A   Scattered Clouds
6:35 PM 69.8 °F 53.6 °F 56% 29.84 in 10.0 mi South 4.6 mph - N/A   Clear
6:55 PM 69.8 °F 55.4 °F 60% 29.85 in 10.0 mi SSE 8.1 mph - N/A   Clear
7:15 PM 69.8 °F 57.2 °F 64% 29.86 in 10.0 mi SSE 8.1 mph - N/A   Clear
7:35 PM 69.8 °F 59.0 °F 68% 29.87 in 10.0 mi SSE 4.6 mph - N/A   Scattered Clouds
7:55 PM 69.8 °F 59.0 °F 68% 29.87 in 10.0 mi SSE 4.6 mph - N/A   Scattered Clouds
8:15 PM 69.8 °F 60.8 °F 73% 29.89 in 10.0 mi SSE 5.8 mph - N/A   Clear
8:35 PM 60.8 °F 46.4 °F 59% 29.91 in 10.0 mi North 16.1 mph 19.6 mph N/A   Mostly Cloudy
8:55 PM 59.0 °F 42.8 °F 55% 29.93 in 10.0 mi North 13.8 mph - N/A   Overcast
9:15 PM 55.4 °F 41.0 °F 58% 29.94 in 10.0 mi North 15.0 mph 19.6 mph N/A   Mostly Cloudy
9:35 PM 55.4 °F 42.8 °F 63% 29.94 in 10.0 mi North 12.7 mph - N/A   Mostly Cloudy
9:55 PM 55.4 °F 41.0 °F 58% 29.96 in 10.0 mi North 11.5 mph 18.4 mph N/A   Overcast
10:15 PM 53.6 °F 41.0 °F 62% 29.96 in 10.0 mi North 10.4 mph - N/A   Overcast
10:35 PM 53.6 °F 41.0 °F 62% 29.97 in 10.0 mi North 11.5 mph 16.1 mph N/A   Overcast
11:35 PM 51.8 °F 39.2 °F 62% 29.98 in 10.0 mi North 13.8 mph 17.3 mph N/A   Overcast
11:55 PM 51.8 °F 37.4 °F 58% 29.99 in 10.0 mi North 13.8 mph 17.3 mph N/A   Overcast